Dauntless Aviation
Airports South America Brazil
SBGO
GYN

Santa Genoveva Airport

Goiânia, BRAZIL

Airport Info
Suggest Updated Information for this Airport

Location

Latitude / Longitude: 16°37'55"S / 49°13'14"W
  16°37.92'S / 49°13.242'W
  -16.6320 / -49.2207

Nearby radio navigation aids

GOI GOIANIA VOR/DME on field.
GOI GOIANIA NDB on field.

Runway Information

Runway 14 /32

Dimensions: 7300 x 148 ft.
Surface: ASP
 
Runway 14
Runway 32
Latitude: -16.626111 -16.636111
Longitude: -49.231389 -49.213333
Elevation: 2440 ft. 2440 ft.
Runway true heading: 121.4 301.4
 

Instrument Procedures

  Aerodrome Chart
  Aerodrome Chart SBGO

IAPs (Instrument Approach Procedures)

  NDB Rwy 14
  VOR ou VOR/DME Rwy 14
  RNAV (GNSS) Rwy 14
  RNAV (GNSS) Rwy 32
  RNAV (GNSS) Rwy 32
  Visual Approach Chart
  VOR ou VOR/DME Rwy 32
  RNAV (GNSS) Rwy 14
  NDB Z Rwy 14
  Visual Approach Chart
  VOR ou VOR/DME Rwy 14
  VOR ou VOR/DME Rwy 32

Departure Procedures

  SID NIMVA 1B- OPLIK 1BTENEK 1B-UBSUS 1B
  SID AMANT-EPKON-ETOB
  SID AMANT 1B-PADIK 1B-PAJEM 1B-PAPES 1B
  SID RNAV KETUL 1A-MUDOP 1A-PADIK 1A-PAJEM 1AUBMU 1A-ROMIK 1A Rwy 14
  SID ARIH-LIZA
  SID RNAV KETUL 1A-MUDOP 1A-PADIK 1A-PAJEM 1AUBMU 1A-ROMIK 1A Rwy 32
  SID RNAV ISOPI 1A- KETUL 1ALODUV 1A- MOSNA 1A- NIVMA1APAPES 1A- SATNA 1A- SEKLI 1ATENEK 1A- UBSUS1A Rwy 32
  SID RNAV ISOPI 1A-KETUL 1A LODUV 1A-MOSNA 1ANIMVA 1A-PAPES 1ASATNA 1A-SEKLI 1ASELMU 1A-TENEK 1AUBSUS 1A Rwy 14
  SID ARIH-LIZA
  SID LODUV 1B- SATNA- SEKLISELMU
Satellite photo at:
Airport distance calculator
From:
Weather Reports

METAR

SBGO

SBGO 200500Z 11003KT CAVOK 24/16 Q1016
SBAN
28.9nm N
SBAN 200500Z 13006KT CAVOK 22/14 Q1019

TAF

SBGO
TAF SBGO 192000Z 2000/2024 13005KT CAVOK TN19/2009Z TX32/2017Z BECMG 2006/2008 14005KT BECMG 2012/2014 08010KT 7000 FEW040 BECMG 2018/2020 09005KT 7000 FEW040 RMK PDE
SBAN
28.9nm N
TAF SBAN 192000Z 2000/2012 14005KT CAVOK TN19/2009Z TX23/2011Z BECMG 2006/2008 11007KT RMK PDE
Safelog

 

Dauntless Aviation

© 2007-2018 Dauntless Aviation, all rights reserved
Information provided via PilotNav comes from a variety of official and unofficial data sources. As errors are possible, do not use PilotNav for primary flight planning purposes. Verify any information that you receive via PilotNav with current and canonical charts and other official documents. The material in this database is subject to database copyrights held by Dauntless Aviation and may not be copied without the express permission of Dauntless Aviation - licenses for use of part of all of this data are available for purchase; enquire via the Dauntless Aviation helpdesk. A number of mechanisms and markers exist in the database to protect against and identify infringement / copyright. Automated queries against this website are stictly prohibited, and all activity is logged and analyzed.